Monticello, AR

4:58 PM CST on November 24, 2017 (GMT -0600)
Monticello Municipal-Ellis

Weather History for KLLQ - April, 2013

Change the Weather History Date:

Thursday, April 4, 2013

  Actual Average Record
Temperature  
Mean Temperature 45 °F -  
Max Temperature 46 °F 73 °F 87 °F (1958)
Min Temperature 44 °F 48 °F 23 °F (1987)
Degree Days  
Heating Degree Days 20    
Moisture  
Dew Point 41 °F    
Average Humidity 86    
Maximum Humidity 93    
Minimum Humidity 73    
Precipitation  
Precipitation 0.48 in - - ()
Sea Level Pressure  
Sea Level Pressure 30.05 in    
Wind  
Wind Speed 5 mph (NNW)    
Max Wind Speed 14 mph    
Max Gust Speed -    
Visibility 8 miles    
Events Rain    
Averages and records for this station are not official NWS values.
T = Trace of Precipitation, MM = Missing Value Source: NWS Daily Summary

Daily Weather History Graph

Daily Weather History Graph

Search for Another Location

Airport or City:

Trip Planner

Search our weather history database for the weather conditions in past years. The results will help you decide how hot, cold, wet, or windy it might be!

Date:

Astronomy

Apr. 04, 2013 Rise Set
Actual Time 6:50 AM CDT 7:30 PM CDT
Civil Twilight 6:25 AM CDT 7:55 PM CDT
Nautical Twilight 5:55 AM CDT 8:24 PM CDT
Astronomical Twilight 5:25 AM CDT 8:55 PM CDT
Moon 3:01 AM CDT (4/4) 2:03 PM CDT (4/4)
Length of Visible Light 13h 30m
Length of Day
12h 39m
Waning Crescent, 33% of the Moon is Illuminated
Apr 4
Waning Crescent
Apr 10
New
Apr 18
First Quarter
Apr 25
Full
May 2
Last Quarter

Hourly Weather History & Observations

Time (CDT) Temp. Windchill Dew Point Humidity Pressure Visibility Wind Dir Wind Speed Gust Speed Precip Events Conditions
12:53 AM 45.0 °F 43.5 °F 37.0 °F 74% 30.10 in 10.0 mi NNE 3.5 mph - N/A   Overcast
1:53 AM 45.0 °F 41.8 °F 37.9 °F 76% 30.07 in 10.0 mi NE 5.8 mph - N/A   Overcast
2:53 AM 45.0 °F 41.8 °F 39.0 °F 80% 30.04 in 10.0 mi NE 5.8 mph - N/A   Overcast
3:53 AM 46.0 °F 43.1 °F 37.9 °F 73% 30.01 in 10.0 mi NE 5.8 mph - N/A   Overcast
4:53 AM 46.0 °F - 37.9 °F 73% 30.01 in 10.0 mi Calm Calm - 0.00 in   Overcast
5:53 AM 46.0 °F 44.8 °F 39.0 °F 76% 30.01 in 10.0 mi NNE 3.5 mph - 0.01 in Rain Light Rain
6:49 AM 44.6 °F 43.1 °F 41.0 °F 87% 30.03 in 2.5 mi NW 3.5 mph - 0.09 in Rain Heavy Rain
6:53 AM 44.1 °F 42.5 °F 41.0 °F 89% 30.04 in 3.0 mi NW 3.5 mph - 0.11 in Rain Rain
7:03 AM 44.6 °F 43.1 °F 41.0 °F 87% 30.04 in 2.5 mi WNW 3.5 mph - 0.05 in Rain Rain
7:10 AM 44.6 °F 43.1 °F 41.0 °F 87% 30.04 in 4.0 mi NW 3.5 mph - 0.07 in Rain Rain
7:24 AM 44.6 °F - 42.8 °F 93% 30.05 in 1.8 mi Calm Calm - 0.13 in Rain Heavy Rain
7:39 AM 44.6 °F 42.2 °F 42.8 °F 93% 30.06 in 2.5 mi WNW 4.6 mph - 0.18 in Rain Heavy Rain
7:53 AM 44.1 °F 38.6 °F 42.1 °F 93% 30.03 in 3.0 mi NNE 10.4 mph - 0.21 in Rain Light Rain
8:02 AM 44.6 °F 38.1 °F 42.8 °F 93% 30.02 in 2.5 mi NE 13.8 mph - 0.02 in Rain Heavy Rain
8:26 AM 44.6 °F 42.2 °F 42.8 °F 93% 30.04 in 3.0 mi Variable 4.6 mph - 0.11 in Rain Rain
8:53 AM 44.1 °F 41.5 °F 41.0 °F 89% 30.06 in 7.0 mi NNW 4.6 mph - 0.13 in Rain Light Rain
9:07 AM 44.6 °F - 42.8 °F 93% 30.05 in 9.0 mi Calm Calm - 0.01 in   Overcast
9:53 AM 45.0 °F 42.6 °F 42.1 °F 90% 30.06 in 10.0 mi North 4.6 mph - 0.01 in   Overcast
10:53 AM 45.0 °F 42.6 °F 42.1 °F 90% 30.07 in 10.0 mi North 4.6 mph - N/A   Overcast
11:53 AM 45.0 °F 41.2 °F 41.0 °F 86% 30.07 in 10.0 mi Variable 6.9 mph - N/A   Overcast
12:10 PM 44.6 °F 40.7 °F 41.0 °F 87% 30.06 in 10.0 mi Variable 6.9 mph - N/A   Overcast
12:32 PM 44.6 °F 42.2 °F 41.0 °F 87% 30.06 in 10.0 mi Variable 4.6 mph - N/A   Overcast
12:53 PM 45.0 °F 42.6 °F 41.0 °F 86% 30.06 in 10.0 mi NNW 4.6 mph - N/A   Overcast
1:53 PM 45.0 °F 41.8 °F 41.0 °F 86% 30.04 in 10.0 mi Variable 5.8 mph - N/A   Overcast
2:26 PM 44.6 °F 43.1 °F 39.2 °F 81% 30.03 in 10.0 mi Variable 3.5 mph - N/A   Overcast
2:53 PM 46.0 °F 43.9 °F 39.9 °F 79% 30.03 in 10.0 mi NW 4.6 mph - N/A   Overcast
3:53 PM 46.9 °F - 39.9 °F 77% 30.02 in 10.0 mi Variable 5.8 mph - N/A   Overcast
4:53 PM 46.0 °F 42.5 °F 39.0 °F 76% 30.03 in 10.0 mi NNW 6.9 mph - N/A   Overcast
5:29 PM 44.6 °F 41.4 °F 41.0 °F 87% 30.04 in 4.0 mi NNW 5.8 mph - 0.00 in   Overcast
5:35 PM 44.6 °F 41.4 °F 41.0 °F 87% 30.04 in 3.0 mi Variable 5.8 mph - 0.00 in   Overcast
5:53 PM 44.1 °F 41.5 °F 42.1 °F 93% 30.04 in 3.0 mi Variable 4.6 mph - 0.00 in Rain Light Rain
6:35 PM 44.6 °F 40.7 °F 41.0 °F 87% 30.05 in 6.0 mi Variable 6.9 mph - 0.00 in   Overcast
6:53 PM 44.1 °F 40.1 °F 41.0 °F 89% 30.05 in 10.0 mi NNW 6.9 mph - 0.00 in   Overcast
7:05 PM 44.6 °F 40.7 °F 39.2 °F 81% 30.05 in 10.0 mi NNW 6.9 mph - N/A   Overcast
7:53 PM 44.1 °F - 41.0 °F 89% 30.06 in 10.0 mi Calm Calm - 0.00 in Rain Light Rain
8:31 PM 44.6 °F 43.1 °F 41.0 °F 87% 30.06 in 10.0 mi NNW 3.5 mph - 0.00 in   Overcast
8:48 PM 44.6 °F 43.1 °F 41.0 °F 87% 30.06 in 10.0 mi WNW 3.5 mph - 0.00 in   Overcast
8:53 PM 44.1 °F 41.5 °F 41.0 °F 89% 30.06 in 10.0 mi NW 4.6 mph - 0.00 in   Overcast
9:02 PM 44.6 °F 43.1 °F 41.0 °F 87% 30.06 in 10.0 mi NW 3.5 mph - N/A   Overcast
9:53 PM 44.1 °F 41.5 °F 41.0 °F 89% 30.08 in 8.0 mi NW 4.6 mph - 0.00 in Rain Light Rain
10:53 PM 44.1 °F 41.5 °F 41.0 °F 89% 30.09 in 9.0 mi NW 4.6 mph - 0.01 in   Overcast
11:53 PM 44.1 °F 42.5 °F 42.1 °F 93% 30.10 in 8.0 mi WNW 3.5 mph - N/A   Overcast